Regional Weather Roundup
Issued by NWS

Home | Current Version | Previous Version | Text Only | Print | Product List | Glossary On
Versions: 1 2 3 4 5 6 7 8 9 10 11 12 13 14 15 16 17 18 19 20 21 22 23 24 25 26 27 28 29 30 31 32 33 34 35 36 37 38 39 40 41 42 43 44 45 46 47 48 49 50
000
ASUS43 KLSX 290410
RWRMO

WEATHER SUMMARY FOR MISSOURI
NATIONAL WEATHER SERVICE SPRINGFIELD MO
1100 PM CDT SUN AUG 28 2016

NOTE: "FAIR" INDICATES FEW OR NO CLOUDS BELOW 12,000 FEET WITH NO
       SIGNIFICANT WEATHER AND/OR OBSTRUCTIONS TO VISIBILITY.
       CURRENT SKY AND/OR WEATHER CONDITIONS ARE NOT AVAILABLE FOR
       CHILLICOTHE AND FARMINGTON.

MOZ001>031-035>038-043-044-053-054-290500-
...NORTHERN AND WESTERN MISSOURI...

CITY           SKY/WX    TMP DP  RH WIND       PRES   REMARKS
KANSAS CTY INT CLOUDY    72  66  81 SE8       30.14F
KANSAS C DTWN  CLOUDY    72  68  87 CALM      30.13S
LEE`S SUMMIT   CLEAR     73  70  90 NE5       30.16R
ST JOSEPH      CLOUDY    74  70  87 S6        30.14S
KIRKSVILLE     CLOUDY    72  69  90 CALM      30.18R

$$
MOZ066>068-077>081-088>096-101>105-290500-
...SOUTHWEST MISSOURI...

CITY           SKY/WX    TMP DP  RH WIND       PRES   REMARKS
SPRINGFIELD    CLEAR     76  69  79 CALM      30.15R
JOPLIN         PTCLDY    77  70  79 E3        30.13R
BRANSON        CLEAR     75  72  88 CALM      30.16S

$$
MOZ032>034-039>042-045>050-055>058-069>072-290500-
...CENTRAL MISSOURI...

CITY           SKY/WX    TMP DP  RH WIND       PRES   REMARKS
COLUMBIA       CLEAR     76  74  93 E6        30.16R
JEFFERSON CITY PTCLDY    76  73  91 S3        30.14R
ROLLA          CLEAR     76  71  85 E5        30.16R
SEDALIA        CLEAR     75  71  87 NE3       30.15S
WHITEMAN AFB   CLEAR     75  75 100 E5        30.13S
OSAGE BEACH    CLEAR     73  72  96 CALM      30.16R

$$
MOZ051-052-059>065-290500-
...EAST CENTRAL MISSOURI...

CITY           SKY/WX    TMP DP  RH WIND       PRES   REMARKS
ST LOUIS INTL  PTCLDY    84  72  67 E7        30.15R
SPIRIT OF STL  PTCLDY    77  75  93 CALM      30.13R
ST CHARLES     CLEAR     79  76  90 CALM      30.13S

$$
MOZ072>076-082>087-097>100-106>115-290500-
...SOUTH CENTRAL AND SOUTHEAST MISSOURI...

CITY           SKY/WX    TMP DP  RH WIND       PRES   REMARKS
CAPE GIRARDEAU CLEAR     78  74  87 E3        30.12S
FARMINGTON     CLEAR     76  74  93 CALM      30.17R
POPLAR BLUFF   CLEAR     77  75  93 CALM      30.11S
WEST PLAINS    CLEAR     73  70  90 CALM      30.18R

$$




USA.gov is the U.S. government's official web portal to all federal, state and local government web resources and services.